Helicity
110 78 46 62 39 -9 -10 -25 -10 4 12 4 6 28 23 47 52 26 15 -2 17 3 -10 2 11 2 -8 -23 -15 -17 10 28 24 18 24 52 31 45 11 31 54 68 76 53 22 -4 -3 1 -6
104 66 72 113 16 21 -10 -4 -19 -13 2 31 -1 9 20 18 37 2 -1 3 22 -8 -10 7 3 2 0 -27 -35 -17 31 34 38 25 30 63 59 60 21 25 46 64 66 42 2 -1 -5 -9 -4
99 108 66 44 -3 7 2 -15 0 4 -12 8 33 12 27 33 10 34 1 6 14 -10 -2 5 6 10 9 -15 -28 -15 6 9 23 75 77 74 93 60 63 34 24 68 71 24 4 -2 -9 -17 -13
104 115 105 8 22 -2 13 -3 3 -4 -13 -11 -3 5 29 51 42 11 4 24 -1 -18 8 -1 7 9 18 11 -4 -19 -14 -3 -45 15 21 20 27 39 30 19 19 83 35 17 6 -4 -15 -4 -8
87 100 35 37 28 33 27 21 -23 -22 -16 -12 -10 12 31 35 11 -3 4 15 -15 -15 -8 2 10 9 13 9 6 -7 2 -10 -24 -49 -21 12 17 61 24 27 55 56 28 18 13 3 7 9 -11
77 69 25 42 76 54 36 21 5 0 6 7 23 15 21 32 -4 -2 5 -1 -9 -14 0 -5 -1 3 4 15 9 11 4 13 -4 -60 -84 -23 -28 -15 38 33 41 39 20 28 21 18 21 24 30
37 23 46 59 92 103 63 27 17 10 3 7 1 21 10 9 -6 0 4 -2 -3 6 1 1 -1 -2 3 8 11 11 10 10 18 -10 -54 -62 -69 -8 29 33 14 26 24 24 13 20 25 29 40
40 38 67 66 52 129 82 23 20 25 12 -15 39 26 -12 6 11 6 11 5 2 7 13 -8 -7 15 -10 -12 7 15 8 3 6 17 -9 -15 -31 -2 -9 1 20 2 15 14 15 25 30 33 35
42 49 28 38 39 112 105 85 14 26 18 24 29 20 33 15 16 22 15 18 12 13 16 17 -1 5 1 -8 3 4 14 4 3 -2 15 33 8 4 17 29 7 3 13 10 12 22 27 41 27
41 26 21 34 45 97 104 78 32 34 23 6 4 26 25 13 17 21 21 26 23 16 10 10 6 4 17 14 6 10 5 1 -5 -1 6 15 7 21 19 11 21 9 8 6 12 19 29 58 21
28 1 21 28 41 62 86 79 23 35 30 31 40 40 24 20 14 17 21 28 32 24 10 16 12 13 9 13 12 4 -3 -5 -5 0 6 16 5 16 23 8 4 0 12 15 20 19 36 15 21
23 8 24 37 47 55 71 68 57 12 -19 17 36 32 17 13 17 23 28 25 29 30 32 18 12 8 11 7 13 3 0 -1 -2 -10 1 5 14 13 14 10 7 11 0 1 25 23 7 19 14
15 22 29 46 59 52 46 58 76 10 14 7 23 21 -14 -11 2 11 10 27 36 40 40 30 10 4 2 12 1 -4 9 5 -11 -7 -5 3 6 8 8 -1 6 -1 -5 -4 6 3 1 4 8
15 37 48 46 40 61 43 45 59 53 28 20 17 16 4 -26 -20 2 7 24 24 30 42 19 21 12 9 -1 -2 1 2 5 1 -6 -5 0 8 -7 2 8 11 -1 1 -4 1 0 4 4 9
37 44 64 32 18 40 51 61 21 63 59 41 23 20 13 -3 -28 -6 8 19 28 18 19 43 37 28 13 1 -15 -9 -8 0 5 -3 3 4 7 -4 5 3 2 0 1 -1 0 7 5 9 15
114 84 82 87 84 68 43 50 36 55 52 68 51 39 28 14 2 -25 2 15 0 -11 -3 21 42 58 26 5 -1 1 -4 -7 -1 -9 2 0 6 12 -1 0 -6 -17 -14 -5 -2 -4 6 7 6
65 -17 52 96 69 75 65 34 71 50 38 65 57 52 44 29 7 11 27 14 -4 -1 11 18 -2 37 24 34 13 31 12 8 -1 -3 -4 -16 -8 -2 -4 1 -7 -18 -6 -9 -1 2 3 3 6
14 7 61 68 111 83 83 44 78 59 21 45 47 42 33 38 33 28 23 21 17 18 25 17 8 -14 29 17 21 24 23 23 18 11 3 -3 5 7 2 3 2 12 3 6 7 7 -3 -8 -6
16 28 -8 50 74 46 37 21 51 68 32 8 18 27 25 29 28 20 25 23 34 33 30 32 29 31 14 17 19 17 11 -1 -3 -8 -7 -6 8 8 -1 4 -5 -4 -3 3 5 9 29 -1 -9
35 26 -20 100 75 40 19 17 2 23 36 19 20 23 21 32 31 31 30 39 51 51 49 64 47 46 32 21 -15 -14 -12 -9 -11 -2 12 21 3 18 15 12 24 10 -7 -10 -10 -13 -7 -4 35
6 39 5 36 129 51 50 3 26 12 18 16 15 10 33 40 46 45 51 44 39 55 70 77 69 68 39 25 18 -5 -19 -3 -6 3 15 31 19 27 33 44 37 -6 -7 -7 5 -6 6 5 18
-12 31 57 89 76 -21 88 0 48 56 69 59 41 37 30 38 42 41 42 67 62 48 47 52 57 58 35 41 13 5 -8 -8 7 6 27 26 25 38 34 27 -10 4 19 33 4 7 19 34 27
20 37 75 72 50 65 3 4 -14 37 47 57 48 31 42 47 38 41 36 30 32 54 54 32 42 96 34 66 24 7 5 5 2 10 12 -6 17 -2 -16 5 25 31 25 34 39 42 42 42 24
-1 80 93 59 59 19 37 67 -5 19 45 63 47 45 36 33 42 50 41 32 36 62 92 72 50 65 89 65 73 25 8 5 7 9 7 4 8 20 39 41 40 38 48 30 23 30 25 30 33
39 78 14 25 -3 22 33 57 23 9 14 7 27 33 40 41 43 48 85 60 51 57 76 101 91 72 55 61 68 61 33 20 11 0 9 0 17 32 63 38 29 20 22 15 14 17 22 19 24
17 60 28 7 41 11 50 20 -15 -9 2 15 4 6 23 40 66 77 85 69 62 73 63 81 111 60 59 76 62 41 32 16 16 29 4 27 33 47 70 52 43 27 5 -2 9 9 -2 8 2
3 32 58 17 4 24 11 23 -10 32 37 20 6 9 31 38 27 46 85 93 96 99 99 69 86 73 47 69 48 36 18 18 8 -12 8 16 23 39 52 55 53 44 31 10 7 -6 0 3 5
49 37 9 11 13 29 28 17 32 4 14 9 5 16 23 22 23 33 51 77 89 82 77 75 77 66 56 38 34 14 17 25 13 5 14 15 36 39 65 55 56 43 27 18 6 15 10 -11 -8
0 15 27 28 51 27 15 45 34 16 3 -11 25 32 37 37 25 35 27 41 81 92 82 78 75 90 81 68 54 42 36 21 17 5 15 25 34 52 49 49 50 50 40 29 15 9 25 11 20
37 26 -1 41 22 4 49 55 5 26 31 33 20 30 30 40 50 43 30 12 20 46 79 96 74 78 81 77 72 66 40 23 25 12 32 33 32 30 17 28 44 53 51 50 34 25 40 26 27
Wind_Speed
46 43 40 35 42 46 44 41 37 40 42 18 16 17 13 14 21 14 4 51 52 47 36 17 14 18 22 30 27 22 28 18 15 48 41 37 38 28 30 12 10 5 6 8 3 25 48 48 52
46 45 38 34 50 46 45 45 34 30 33 39 13 23 15 9 6 27 48 54 49 17 19 20 14 17 21 29 26 27 30 22 22 43 38 31 26 26 22 11 12 6 12 16 3 30 42 51 58
45 39 38 41 53 44 51 46 43 37 28 7 33 12 16 18 9 28 44 57 53 11 17 18 16 15 15 16 30 35 44 55 50 34 22 27 17 14 11 15 15 24 22 15 8 29 37 44 50
40 40 40 65 63 58 54 47 44 41 25 17 26 15 6 12 29 48 58 56 54 36 21 21 18 18 19 19 29 36 58 65 58 40 17 26 18 15 25 8 7 30 20 9 7 30 42 49 57
33 36 59 63 62 58 53 48 41 32 17 11 10 9 4 18 17 55 58 55 53 39 32 26 17 25 21 28 36 47 63 65 60 60 55 41 55 27 24 11 23 17 6 6 10 18 20 27 40
36 34 51 59 58 55 51 43 48 30 26 19 18 4 13 43 58 57 56 55 53 45 24 28 22 21 24 28 33 45 59 64 62 44 40 35 42 29 9 6 11 19 9 9 8 3 3 3 30
30 41 43 49 52 47 45 40 37 44 38 11 25 7 25 48 56 55 54 54 52 36 16 11 34 27 21 21 26 40 56 60 62 56 25 23 11 9 13 7 6 16 16 18 24 24 32 28 28
33 36 40 35 43 51 45 41 50 42 6 25 22 28 37 58 56 55 54 52 50 46 45 47 41 12 27 27 23 32 46 55 59 58 14 14 14 5 5 2 2 12 26 28 27 27 30 28 30
33 35 42 41 33 49 47 50 40 37 49 20 22 16 36 61 57 55 53 51 48 47 47 41 49 13 11 10 13 29 41 54 55 50 37 41 16 7 6 5 12 20 36 34 34 35 32 35 38
28 33 41 37 44 48 47 45 45 51 42 33 4 15 48 59 56 54 52 50 48 49 47 45 42 49 41 19 16 11 48 43 44 43 43 42 45 42 37 41 43 43 37 38 37 33 36 37 35
35 42 42 42 43 50 50 46 42 49 37 54 58 55 48 56 54 53 50 49 48 48 48 47 44 43 46 32 46 45 45 46 45 41 39 41 42 42 41 40 44 39 41 42 38 37 38 35 35
38 40 40 47 48 50 50 48 46 39 43 54 54 45 47 49 53 52 50 49 48 47 46 47 48 46 42 45 42 42 42 42 42 41 42 40 39 39 36 36 36 37 37 36 38 38 36 37 37
39 38 43 45 46 47 47 47 47 41 50 53 53 47 23 33 43 50 48 48 47 45 45 45 46 46 44 42 42 42 40 42 42 42 40 41 39 38 38 37 37 37 37 38 38 37 37 37 38
35 33 38 41 43 44 42 44 46 46 51 53 54 51 33 10 25 45 47 47 45 45 46 41 45 45 45 43 41 41 41 41 42 41 42 42 39 38 37 37 37 38 38 37 38 38 38 39 39
40 40 42 41 35 39 43 40 36 49 51 53 53 52 47 36 27 39 43 43 43 39 41 45 44 45 42 43 43 42 42 42 40 40 40 40 39 38 39 38 38 39 37 38 40 38 37 37 35
40 34 39 41 40 37 32 34 41 47 51 51 52 50 48 48 45 29 40 41 34 31 32 38 42 39 41 39 38 41 42 44 44 42 42 42 41 40 39 39 40 40 39 39 40 40 40 38 38
39 43 36 38 33 34 33 34 40 45 48 50 50 49 47 45 45 45 44 39 31 26 25 29 28 39 40 40 39 39 39 43 44 43 42 42 41 41 41 41 40 39 40 40 40 42 42 42 40
26 38 37 33 32 31 31 32 39 43 44 45 46 47 46 44 43 41 40 36 34 31 27 23 20 19 32 38 40 39 38 40 41 43 41 41 41 41 41 41 40 38 37 39 39 40 43 42 41
36 30 42 39 33 26 30 33 36 43 44 44 44 43 42 41 40 38 34 34 33 30 25 21 20 15 20 24 41 38 38 32 36 33 36 39 40 38 38 39 41 40 35 36 40 34 15 46 46
30 32 46 36 34 27 26 31 38 44 44 42 41 40 39 37 36 35 34 34 34 32 31 28 27 18 19 16 18 27 29 25 20 20 24 28 40 38 34 29 40 40 44 43 44 44 46 44 15
36 18 29 11 34 28 22 18 42 43 42 41 40 39 38 36 34 33 35 37 35 35 34 34 33 28 11 20 14 18 24 24 22 21 23 27 33 32 29 24 27 42 43 43 44 47 42 47 40
33 23 24 24 14 44 19 34 43 43 41 40 39 38 37 35 34 34 36 35 34 35 34 36 38 33 34 28 18 16 24 20 23 17 21 35 32 24 20 18 39 39 38 39 44 40 47 22 32
26 27 23 26 37 38 13 17 35 45 40 39 40 40 36 35 33 32 33 32 31 31 32 32 37 35 32 27 21 16 37 23 29 27 27 39 27 37 41 37 34 35 38 41 45 43 34 32 25
29 31 30 35 35 30 18 20 35 42 45 42 37 35 33 32 32 30 30 30 30 30 31 32 36 38 33 29 26 24 7 21 28 36 34 34 32 31 30 34 36 39 39 40 41 39 32 35 35
37 34 20 20 12 18 15 27 16 43 43 43 44 40 35 33 32 32 31 30 30 31 30 30 33 36 37 37 31 30 28 14 8 28 30 36 29 27 27 31 34 35 37 39 38 30 32 34 35
37 34 29 31 24 16 28 15 25 38 38 39 38 39 38 35 33 32 33 33 33 33 30 29 29 33 38 39 36 32 31 26 22 18 13 13 17 19 23 21 25 28 33 35 32 26 29 29 28
22 37 24 32 31 33 24 40 11 36 34 32 36 36 36 35 36 37 38 37 37 37 34 31 28 29 34 36 38 34 32 35 28 21 10 10 13 24 20 19 21 24 27 29 29 28 26 27 29
39 25 36 30 32 26 24 26 28 28 33 36 36 36 36 38 37 37 38 37 37 36 35 33 29 27 30 33 32 31 31 33 33 28 21 16 11 14 16 16 18 23 28 27 26 26 26 30 30
44 47 38 24 29 28 30 26 25 24 27 32 33 32 33 34 37 36 35 34 33 34 34 35 35 32 29 28 29 27 22 22 20 20 17 15 10 9 11 12 15 19 22 24 26 28 28 26 28
41 46 49 43 21 26 31 26 25 26 29 28 28 28 27 28 30 33 32 32 31 30 31 30 31 30 29 29 27 27 26 22 14 10 11 8 5 6 8 11 14 17 18 21 23 24 25 25 27
Wind_Direction
92 94 92 103 92 41 29 23 36 57 74 222 241 238 311 274 226 245 341 106 120 77 49 354 331 350 11 29 12 350 356 329 316 111 101 95 97 90 99 127 117 102 182 194 212 53 78 75 78
93 91 105 107 69 33 26 64 8 2 38 64 309 189 246 290 265 73 95 122 138 17 12 7 333 351 15 32 14 5 1 344 4 81 90 90 90 87 186 158 183 196 211 211 51 61 70 80 89
97 103 95 89 27 17 54 42 39 41 31 196 113 265 225 199 214 184 78 117 117 357 8 1 349 355 13 17 27 24 25 40 42 64 74 73 98 94 159 185 204 202 209 213 202 61 65 69 74
106 100 96 66 60 59 62 52 44 49 15 313 32 4 225 214 185 144 116 125 103 62 19 16 4 12 21 26 34 32 47 55 54 55 97 76 85 165 185 156 173 202 204 204 66 66 72 74 90
114 103 75 67 60 68 68 73 17 21 320 287 248 2 231 192 123 99 119 129 95 63 44 28 2 24 25 41 47 52 67 64 60 67 71 74 79 94 85 145 187 196 179 159 72 59 46 46 62
101 103 84 72 69 64 71 87 64 16 25 31 41 31 214 157 115 125 128 124 115 84 31 35 22 21 31 43 47 57 74 81 75 58 62 69 73 74 110 140 187 187 182 180 192 237 274 214 171
112 94 93 84 81 81 84 104 131 56 58 346 193 224 194 158 130 123 128 124 119 136 12 340 50 36 25 29 40 56 81 85 102 83 49 53 61 187 194 193 193 197 199 203 198 201 186 190 186
103 103 93 99 89 75 94 117 122 131 282 191 204 197 186 146 133 123 127 126 134 148 154 96 77 246 41 44 35 48 68 84 102 122 162 44 43 169 53 202 195 219 199 198 199 199 195 199 191
105 105 89 92 101 89 102 107 123 148 142 208 209 204 79 127 131 128 129 131 142 144 148 168 130 249 277 342 12 50 65 111 110 138 161 158 188 196 230 225 213 204 184 192 192 191 201 187 167
128 115 95 104 94 96 108 113 119 128 149 173 234 55 91 124 132 129 132 132 139 144 148 161 168 141 171 234 246 262 126 143 148 155 157 159 156 164 174 169 168 170 191 187 190 208 192 183 189
111 96 95 93 97 94 103 111 126 128 149 135 116 108 100 123 135 134 133 128 130 138 142 152 168 174 161 201 159 155 154 150 156 167 176 171 168 169 176 180 173 186 181 178 194 193 177 196 201
93 95 101 85 93 96 101 107 115 135 130 122 116 99 104 109 127 134 131 123 121 123 137 151 153 162 179 160 173 175 168 171 176 177 175 182 183 184 196 203 202 203 206 216 201 192 203 206 202
89 51 65 86 85 94 106 106 108 117 118 122 115 107 72 81 101 122 117 123 126 114 126 156 163 167 175 182 173 177 184 177 177 179 190 187 188 197 199 204 210 215 215 209 209 210 209 205 211
78 30 44 80 73 90 114 113 109 105 114 120 126 121 92 19 65 110 122 122 115 118 133 175 166 162 168 180 188 186 186 190 186 182 187 191 196 202 207 212 220 217 221 222 221 218 218 217 215
96 108 91 72 58 94 100 117 124 109 114 121 131 132 119 102 81 107 115 119 119 98 101 139 164 161 178 169 181 188 188 188 198 202 206 206 213 212 214 216 221 226 241 230 217 213 207 207 202
135 159 113 117 127 107 134 132 117 117 120 118 129 130 134 139 137 99 122 127 97 88 83 109 163 130 165 190 200 195 200 201 191 196 198 207 209 212 214 222 215 222 220 222 232 221 229 216 223
104 56 128 115 145 125 137 125 115 123 129 128 131 135 136 135 147 156 152 137 114 91 78 90 80 165 186 162 217 193 218 205 203 213 213 210 213 217 222 227 235 238 238 243 229 239 256 242 236
142 94 95 106 110 126 135 138 123 134 134 127 131 139 146 148 152 147 148 140 135 125 108 90 60 41 136 190 198 208 232 214 217 208 217 223 212 220 224 229 253 237 254 257 240 224 242 233 237
113 120 38 65 93 137 139 152 135 143 146 142 143 142 147 151 147 148 144 147 145 138 127 107 97 55 67 77 192 214 227 265 253 273 265 246 222 227 237 237 247 243 201 216 240 199 69 274 250
134 111 36 91 89 144 181 168 160 145 152 151 151 151 154 154 155 152 153 153 153 150 150 141 137 107 103 52 3 290 281 305 336 49 93 129 238 207 186 185 280 283 261 246 248 239 241 287 54
94 234 312 232 101 158 207 51 144 145 153 159 164 165 164 163 159 157 160 162 160 161 157 154 151 146 110 107 24 346 323 300 327 70 100 134 177 169 167 150 175 246 279 288 289 277 304 294 312
88 259 139 122 233 49 208 33 124 131 145 155 160 163 166 166 166 163 164 160 161 161 157 157 157 145 146 138 101 81 304 339 332 359 106 177 163 134 113 96 289 304 313 317 295 307 294 359 335
254 222 156 120 104 97 295 25 37 113 126 146 155 164 163 166 166 161 160 156 152 146 148 149 153 149 146 135 130 114 175 321 316 328 324 253 333 294 284 310 330 328 324 312 310 315 331 331 348
282 181 119 99 128 355 291 225 47 68 103 122 128 140 146 155 157 152 148 141 138 135 135 140 150 157 153 146 147 149 42 314 308 298 303 310 320 330 336 332 331 323 324 322 317 319 334 321 320
167 185 202 185 298 324 222 171 346 92 95 80 91 105 121 134 140 143 140 135 132 131 128 131 144 155 161 164 157 159 162 134 53 317 318 307 332 347 354 345 335 333 328 323 326 346 333 318 312
220 233 228 203 245 323 158 214 188 125 98 100 111 103 106 110 119 125 132 140 142 138 126 124 132 149 159 164 163 158 163 155 152 145 118 26 14 16 8 22 10 356 339 332 341 360 342 335 337
269 191 268 209 199 185 205 125 191 153 149 116 105 98 98 90 86 101 116 123 132 142 139 127 123 133 150 160 166 165 166 171 162 153 49 83 28 349 11 29 28 18 5 351 347 342 350 343 336
227 266 210 228 193 208 21 180 11 18 52 65 94 80 69 64 75 91 107 115 120 131 134 139 131 131 144 153 154 158 161 167 171 166 153 138 81 23 29 44 32 12 357 359 4 357 351 336 338
216 210 225 252 242 231 152 25 300 317 335 59 70 63 51 67 76 88 97 103 109 118 130 138 145 142 143 150 157 159 153 153 154 160 152 144 112 66 49 43 26 18 14 10 357 347 346 348 346
234 224 211 211 335 288 247 21 331 342 343 323 357 30 41 76 78 83 92 107 109 116 133 140 148 152 154 158 160 167 168 163 149 147 147 134 99 50 26 10 5 4 6 1 356 352 350 350 346